Weather History for Ottumwa, IA

Change the Weather History Date:

Thursday, December 12, 2013

  Actual Average Record
Temperature  
Mean Temperature 14 °F 27 °F  
Max Temperature 29 °F 35 °F 62 °F (1991)
Min Temperature -1 °F 18 °F -12 °F (1932)
Degree Days  
Heating Degree Days 51 38  
Month to date heating degree days 531 435  
Since 1 July heating degree days 1861 1733  
Cooling Degree Days 0 0  
Month to date cooling degree days 0 0  
Year to date cooling degree days 1014 938  
Moisture  
Dew Point 7 °F    
Average Humidity 68    
Maximum Humidity 79    
Minimum Humidity 57    
Precipitation  
Precipitation 0.00 in 0.04 in 0.68 in (1946)
Month to date precipitation 0.02 0.64  
Year to date precipitation 35.88 36.34  
Sea Level Pressure  
Sea Level Pressure 30.35 in    
Wind  
Wind Speed 9 mph (SSW)    
Max Wind Speed 16 mph    
Max Gust Speed -    
Visibility 10 miles    
Events      
T = Trace of Precipitation, MM = Missing Value Source: NWS Daily Summary

Daily Weather History Graph

Daily Weather History Graph

Search for Another Location

Airport:

Trip Planner

Search our weather history database for the weather conditions in past years. The results will help you decide how hot, cold, wet, or windy it might be!

Date:

Astronomy

Dec. 12, 2013 Rise Set
Actual Time 7:25 AM CST 4:41 PM CST
Civil Twilight 6:54 AM CST 5:12 PM CST
Nautical Twilight 6:20 AM CST 5:47 PM CST
Astronomical Twilight 5:46 AM CST 6:20 PM CST
Moon 1:50 PM CST (12/12) 2:47 AM CST (12/12)
Length of Visible Light 10h 17m
Length of Day
9h 15m
Waxing Gibbous, 80% of the Moon is Illuminated
Dec 12
Waxing Gibbous
Dec 17
Full
Dec 25
Last Quarter
Jan 1
New
Jan 7
First Quarter

Hourly Weather History & Observations

Time (CST) Temp. Windchill Dew Point Humidity Pressure Visibility Wind Dir Wind Speed Gust Speed Precip Events Conditions
12:53 AM -0.9 °F -12.7 °F -7.1 °F 75% 30.58 in 10.0 mi South 5.8 mph - N/A   Clear
1:53 AM 1.0 °F -12.9 °F -6.0 °F 72% 30.56 in 10.0 mi South 8.1 mph - N/A   Clear
2:53 AM 1.9 °F -13.8 °F -5.1 °F 72% 30.54 in 10.0 mi SSW 10.4 mph - N/A   Clear
3:53 AM 3.0 °F -12.5 °F -2.9 °F 76% 30.51 in 10.0 mi SSW 10.4 mph - N/A   Clear
4:53 AM 5.0 °F -11.6 °F -2.0 °F 73% 30.48 in 10.0 mi SSW 12.7 mph - N/A   Clear
5:53 AM 7.0 °F -9.1 °F -0.9 °F 70% 30.44 in 10.0 mi SSW 12.7 mph - N/A   Clear
6:53 AM 9.0 °F -6.6 °F -0.0 °F 67% 30.43 in 10.0 mi SSW 12.7 mph - N/A   Clear
7:53 AM 10.0 °F 0.4 °F 1.0 °F 67% 30.43 in 10.0 mi SW 5.8 mph - N/A   Clear
8:53 AM 16.0 °F 0.6 °F 5.0 °F 62% 30.43 in 10.0 mi WSW 16.1 mph - N/A   Clear
9:53 AM 18.0 °F 4.8 °F 7.0 °F 62% 30.44 in 10.0 mi WSW 12.7 mph - N/A   Clear
10:53 AM 21.9 °F 9.2 °F 10.0 °F 60% 30.41 in - SW 13.8 mph - N/A   Unknown
11:53 AM 23.0 °F 10.1 °F 12.0 °F 63% 30.39 in 10.0 mi WSW 15.0 mph - N/A   Clear
12:53 PM 25.0 °F 16.3 °F 12.9 °F 60% 30.32 in - WSW 8.1 mph - N/A   Unknown
1:53 PM 27.0 °F 21.6 °F 14.0 °F 58% 30.30 in 10.0 mi WSW 4.6 mph - N/A   Clear
2:53 PM 27.0 °F 20.5 °F 15.1 °F 61% 30.30 in 10.0 mi WSW 5.8 mph - N/A   Overcast
3:53 PM 28.0 °F 19.3 °F 15.1 °F 58% 30.27 in 10.0 mi SW 9.2 mph - N/A   Clear
4:53 PM 26.1 °F 19.4 °F 14.0 °F 60% 30.25 in 10.0 mi SSW 5.8 mph - N/A   Clear
5:53 PM 21.9 °F 15.7 °F 12.9 °F 68% 30.24 in 10.0 mi SSW 4.6 mph - N/A   Clear
6:53 PM 21.9 °F 14.5 °F 14.0 °F 72% 30.22 in 10.0 mi South 5.8 mph - N/A   Clear
7:53 PM 19.9 °F 10.1 °F 12.9 °F 74% 30.21 in 10.0 mi SSW 8.1 mph - N/A   Clear
8:53 PM 19.0 °F 12.3 °F 12.9 °F 77% 30.20 in 10.0 mi SSW 4.6 mph - N/A   Clear
9:53 PM 19.0 °F 9.0 °F 12.9 °F 77% 30.19 in 10.0 mi SSW 8.1 mph - N/A   Clear
10:53 PM 19.0 °F 13.9 °F 12.9 °F 77% 30.16 in 10.0 mi SSE 3.5 mph - N/A   Clear
11:53 PM 16.0 °F 8.8 °F 12.0 °F 84% 30.14 in 10.0 mi SE 4.6 mph - N/A   Clear